N3WXO-1 Weather Reports


time (UTC)temp
F
wind
direction
speed
knots
gust
knots
rain 1hr
in
rain 24hr
in
rain mn
in
humidity
%
barometer
mb
20260504130519 51 242 0.0 2.6 0.00 0.00 0.00 67 1013.6
20260504110537 36 247 0.0 0.0 0.00 0.00 0.00 92 1014.1
20260504100526 36 247 0.0 0.0 0.00 0.00 0.00 91 1013.9
20260504081535 37 247 0.0 0.0 0.00 0.00 0.00 89 1014.3
20260504081030 37 247 0.0 0.0 0.00 0.00 0.00 88 1014.2
20260504080526 37 247 0.0 0.0 0.00 0.00 0.00 88 1014.2
20260504050524 42 247 0.0 0.0 0.00 0.00 0.00 77 1013.9
20260504050020 42 247 0.0 0.0 0.00 0.00 0.00 76 1013.9
20260504045521 42 247 0.0 0.0 0.00 0.00 0.00 76 1013.8
20260504045018 42 247 0.0 0.0 0.00 0.00 0.00 76 1013.8
20260504044534 43 247 0.0 0.0 0.00 0.00 0.00 75 1013.8
20260504044031 43 247 0.0 0.0 0.00 0.00 0.00 74 1013.8
20260504043526 43 247 0.0 0.0 0.00 0.00 0.00 74 1013.7
20260504043022 43 247 0.0 0.0 0.00 0.00 0.00 74 1013.8
20260504042520 43 247 0.0 0.0 0.00 0.00 0.00 73 1013.6
20260504042020 43 247 0.0 0.0 0.00 0.00 0.00 73 1013.6
20260504041536 43 247 0.0 0.0 0.00 0.00 0.00 73 1013.6
20260504041032 44 247 0.0 0.0 0.00 0.00 0.00 73 1013.7
20260504040528 44 247 0.0 0.0 0.00 0.00 0.00 72 1013.5
20260504040024 44 247 0.0 0.0 0.00 0.00 0.00 73 1013.5
20260504035520 44 247 0.0 0.0 0.00 0.00 0.00 72 1013.4
20260504035037 44 247 0.0 0.0 0.00 0.00 0.00 71 1013.3
20260504034517 45 247 0.0 0.0 0.00 0.00 0.00 69 1013.2
20260504034034 45 247 0.0 0.0 0.00 0.00 0.00 69 1013.3
20260504033531 45 247 0.0 0.0 0.00 0.00 0.00 68 1013.3
20260504033028 45 247 0.0 0.0 0.00 0.00 0.00 68 1013.2
20260504032524 45 247 0.0 0.0 0.00 0.00 0.00 67 1013.2
20260504032021 46 247 0.0 0.0 0.00 0.00 0.00 65 1013.2
20260504031537 46 247 0.0 0.0 0.00 0.00 0.00 66 1013.1
20260504031017 46 247 0.0 0.0 0.00 0.00 0.00 66 1013.0
20260504030534 47 247 0.0 0.0 0.00 0.00 0.00 65 1013.0
20260504030031 47 247 0.0 0.0 0.00 0.00 0.00 64 1013.0
20260504025528 47 247 0.0 0.0 0.00 0.00 0.00 61 1013.0
20260504025024 47 247 0.0 0.0 0.00 0.00 0.00 60 1013.0
20260504024520 48 247 0.0 0.0 0.00 0.00 0.00 60 1013.0
20260504024037 48 247 0.0 0.0 0.00 0.00 0.00 59 1012.9
20260504023517 48 247 0.0 0.0 0.00 0.00 0.00 59 1013.0
20260504023034 48 247 0.0 0.0 0.00 0.00 0.00 60 1013.0
20260504022531 49 247 0.0 0.0 0.00 0.00 0.00 59 1013.1
20260504022027 49 247 0.0 0.0 0.00 0.00 0.00 58 1013.1
20260504021524 49 247 0.0 0.0 0.00 0.00 0.00 59 1013.1
20260504021020 49 247 0.0 0.0 0.00 0.00 0.00 58 1013.2
20260504020537 50 247 0.0 0.0 0.00 0.00 0.00 56 1013.1
20260504020033 50 247 0.0 0.0 0.00 0.00 0.00 56 1013.0
20260504015531 50 247 0.0 0.0 0.00 0.00 0.00 55 1013.0
20260504015026 51 247 0.0 0.0 0.00 0.00 0.00 52 1013.0
20260504014523 51 247 0.0 0.0 0.00 0.00 0.00 52 1012.8
20260504014019 52 247 0.0 0.0 0.00 0.00 0.00 51 1012.7
20260504013536 52 247 0.0 0.0 0.00 0.00 0.00 51 1012.8
20260504013032 52 247 0.0 0.0 0.00 0.00 0.00 50 1012.8
20260504012532 53 247 0.0 0.0 0.00 0.00 0.00 49 1012.8
20260504012029 53 247 0.0 0.0 0.00 0.00 0.00 48 1012.8
20260504011526 53 247 0.0 0.0 0.00 0.00 0.00 48 1012.7
20260504011021 53 247 0.0 0.0 0.00 0.00 0.00 47 1012.7
20260504010518 54 247 0.0 0.0 0.00 0.00 0.00 46 1012.7
20260504010035 54 247 0.0 0.0 0.00 0.00 0.00 46 1012.5
20260504005532 54 247 0.0 0.0 0.00 0.00 0.00 45 1012.5
20260504005033 55 247 0.0 0.0 0.00 0.00 0.00 45 1012.5
20260504004528 55 247 0.0 0.9 0.00 0.00 0.00 44 1012.4
20260504004026 55 247 0.0 1.7 0.00 0.00 0.00 44 1012.3
20260504003521 55 248 0.0 1.7 0.00 0.00 0.00 44 1012.3
20260504003036 55 247 0.0 0.0 0.00 0.00 0.00 43 1012.2
20260504002533 56 247 0.0 0.0 0.00 0.00 0.00 44 1012.2
20260504002029 56 247 0.0 0.0 0.00 0.00 0.00 43 1012.1
20260504001529 56 247 0.0 4.3 0.00 0.00 0.00 43 1012.2
20260504001026 56 247 0.9 4.3 0.00 0.00 0.00 43 1012.0
20260504000522 56 253 0.0 3.5 0.00 0.00 0.00 43 1012.0
20260504000037 57 252 0.0 3.5 0.00 0.00 0.00 42 1011.9
20260503235533 57 239 0.9 4.3 0.00 0.00 0.00 42 1011.8
20260503235029 57 249 0.9 4.3 0.00 0.00 0.00 40 1011.8
20260503234525 58 249 0.0 3.5 0.00 0.00 0.00 40 1011.8
20260503234026 58 249 0.9 6.1 0.00 0.00 0.00 39 1011.7
20260503233522 58 219 1.7 7.0 0.00 0.00 0.00 38 1011.6
20260503233019 58 251 0.9 6.1 0.00 0.00 0.00 39 1011.6
20260503232535 58 259 0.9 7.0 0.00 0.00 0.00 39 1011.4
20260503232032 58 277 0.9 7.0 0.00 0.00 0.00 38 1011.4
20260503231528 59 246 0.0 3.5 0.00 0.00 0.00 41 1011.3
20260503231024 59 246 0.9 9.6 0.00 0.00 0.00 40 1011.4
20260503230525 59 234 3.5 10.4 0.00 0.00 0.00 38 1011.4
20260503230021 59 240 4.3 10.4 0.00 0.00 0.00 37 1011.3
20260503225517 59 233 4.3 9.6 0.00 0.00 0.00 37 1011.3
20260503225034 60 251 2.6 10.4 0.00 0.00 0.00 38 1011.3
20260503224531 60 259 0.9 15.6 0.00 0.00 0.00 38 1011.4
20260503224027 60 264 4.3 9.6 0.00 0.00 0.00 39 1011.4
20260503223523 60 278 0.0 7.8 0.00 0.00 0.00 38 1011.3
20260503223024 61 298 0.0 7.8 0.00 0.00 0.00 39 1011.3
20260503222520 61 305 1.7 7.8 0.00 0.00 0.00 36 1011.4
20260503222035 61 241 2.6 6.1 0.00 0.00 0.00 39 1011.4
20260503221532 60 241 1.7 7.8 0.00 0.00 0.00 37 1011.3
20260503221028 59 268 0.0 9.6 0.00 0.00 0.00 42 1011.4
20260503220522 59 261 3.5 12.2 0.00 0.00 0.00 37 1011.5
20260503220017 60 217 4.3 8.7 0.00 0.00 0.00 37 1011.4
20260503215533 60 245 0.0 8.7 0.00 0.00 0.00 40 1011.3
20260503215032 60 245 0.9 8.7 0.00 0.00 0.00 37 1011.4
20260503214527 60 258 1.7 4.3 0.00 0.00 0.00 39 1011.3
20260503214023 60 287 0.0 4.3 0.00 0.00 0.00 36 1011.4
20260503213517 61 287 0.9 7.8 0.00 0.00 0.00 36 1011.3
20260503213033 61 256 1.7 9.6 0.00 0.00 0.00 39 1011.2
20260503212527 61 272 4.3 9.6 0.00 0.00 0.00 36 1011.2
20260503212023 61 245 4.3 10.4 0.00 0.00 0.00 37 1011.2
20260503211523 61 236 1.7 9.6 0.00 0.00 0.00 35 1011.2
20260503211017 61 291 1.7 4.3 0.00 0.00 0.00 35 1011.2
20260503210533 61 247 1.7 6.1 0.00 0.00 0.00 37 1011.3
20260503210028 60 253 0.9 9.6 0.00 0.00 0.00 35 1011.1
20260503205522 60 274 0.9 7.0 0.00 0.00 0.00 35 1011.2
20260503205018 61 257 0.9 5.2 0.00 0.00 0.00 35 1011.1
20260503204533 61 255 1.7 6.1 0.00 0.00 0.00 35 1011.1
20260503204033 61 290 0.9 14.8 0.00 0.00 0.00 37 1011.3
20260503203528 61 270 4.3 14.8 0.00 0.00 0.00 36 1011.3
20260503203024 60 244 5.2 13.9 0.00 0.00 0.00 36 1011.2
20260503202519 61 239 3.5 8.7 0.00 0.00 0.00 35 1011.3
20260503202036 61 246 4.3 12.2 0.00 0.00 0.00 37 1011.3
20260503201530 61 248 1.7 16.5 0.00 0.00 0.00 39 1011.5
20260503201026 61 264 0.9 16.5 0.00 0.00 0.00 35 1011.5
20260503200526 61 257 0.9 7.0 0.00 0.00 0.00 36 1011.6
20260503200022 60 323 0.9 8.7 0.00 0.00 0.00 36 1011.5
20260503195518 60 250 0.9 15.6 0.00 0.00 0.00 36 1011.6
20260503195035 60 280 5.2 15.6 0.00 0.00 0.00 36 1011.8
20260503194532 60 297 0.0 11.3 0.00 0.00 0.00 35 1011.8
20260503194026 60 238 6.1 12.2 0.00 0.00 0.00 37 1011.8
20260503193521 59 256 2.6 10.4 0.00 0.00 0.00 37 1012.0
20260503193022 59 282 1.7 7.0 0.00 0.00 0.00 37 1011.9
20260503192519 59 322 1.7 9.6 0.00 0.00 0.00 36 1012.0
20260503192036 59 291 2.6 12.2 0.00 0.00 0.00 38 1012.1
20260503191532 59 234 4.3 12.2 0.00 0.00 0.00 38 1012.3
20260503191028 59 223 4.3 11.3 0.00 0.00 0.00 39 1012.3
20260503190525 59 260 0.9 5.2 0.00 0.00 0.00 36 1012.2
20260503190020 59 287 0.0 6.1 0.00 0.00 0.00 39 1012.3
20260503185520 59 287 2.6 12.2 0.00 0.00 0.00 37 1012.4
20260503185036 59 292 4.3 12.2 0.00 0.00 0.00 37 1012.5
20260503184028 58 274 1.7 8.7 0.00 0.00 0.00 38 1012.4
20260503183524 58 345 1.7 9.6 0.00 0.00 0.00 39 1012.8
20260503183022 58 299 2.6 9.6 0.00 0.00 0.00 39 1012.8
20260503182518 58 277 0.9 9.6 0.00 0.00 0.00 38 1012.8
20260503182017 58 272 4.3 9.6 0.00 0.00 0.00 42 1012.9
20260503181534 57 338 0.9 8.7 0.00 0.00 0.00 39 1012.6
20260503181029 58 18 3.5 9.6 0.00 0.00 0.00 38 1012.6
20260503180525 58 318 3.5 9.6 0.00 0.00 0.00 40 1013.0
20260503180020 57 317 3.5 8.7 0.00 0.00 0.00 42 1012.8
20260503175537 57 274 2.6 13.0 0.00 0.00 0.00 42 1012.9
20260503175032 57 270 4.3 13.0 0.00 0.00 0.00 42 1013.0
20260503174529 56 243 3.5 8.7 0.00 0.00 0.00 43 1012.9
20260503174027 56 266 3.5 7.8 0.00 0.00 0.00 42 1013.0
20260503173523 56 266 0.9 9.6 0.00 0.00 0.00 39 1013.1
20260503173019 56 281 5.2 14.8 0.00 0.00 0.00 38 1013.1
20260503172535 56 278 2.6 14.8 0.00 0.00 0.00 38 1013.1
20260503172030 55 309 2.6 10.4 0.00 0.00 0.00 39 1013.0
20260503171524 55 271 2.6 13.0 0.00 0.00 0.00 42 1013.2
20260503171020 55 243 2.6 11.3 0.00 0.00 0.00 40 1013.3
20260503170522 55 261 3.5 7.0 0.00 0.00 0.00 38 1013.3
20260503150518 49 287 0.0 6.1 0.00 0.00 0.00 51 1014.1